Regional Weather Roundup
Issued by NWS Kansas City/Pleasant Hill, MO

Home | Current Version | Previous Version | Text Only | Print | Product List | Glossary On
Versions: 1 2 3 4 5 6 7 8 9 10 11 12 13 14 15 16 17 18 19 20 21 22 23 24 25 26 27 28 29 30 31 32 33 34 35 36 37 38 39 40 41 42 43 44 45 46 47 48 49 50
000
ASUS43 KEAX 230304
RWREAX

WEATHER ROUNDUP FOR EASTERN KANSAS AND NORTHWEST MISSOURI
NATIONAL WEATHER SERVICE KANSAS CITY/PLEASANT HILL MO
1000 PM CDT TUE JUL 22 2014

KSZ040-057-103>105-MOZ028-029-037-043-230400-
...KANSAS CITY METROPOLITAN AREA...

CITY           SKY/WX    TMP DP  RH WIND       PRES   REMARKS
K.C. INTL      CLEAR     86  78  77 NE3       30.05R HX  98
K.C. DOWNTOWN  CLEAR     89  77  67 NE7       30.02R HX 101
LEES SUMMIT    CLEAR     87  76  69 NE5       30.05R HX  97
OLATHE - IXD   CLEAR     86  75  69 NE6       30.05R HX  95
OLATHE - OJC   CLEAR     85  76  74 CALM      30.04R HX  94
LAWRENCE       CLEAR     86  77  74 CALM      30.04R HAZE    HX  97

$$

MOZ001>008-011>017-020>025-030>033-038>040-044>046-053-054-230400-
...NORTHERN AND CENTRAL MISSOURI...

CITY           SKY/WX    TMP DP  RH WIND       PRES   REMARKS
ST. JOSEPH     CLEAR     82  79  90 N8        30.04R HX  92
MOSBY          CLEAR     82  77  83 CALM      30.02S HX  91
WHITEMAN AFB   CLEAR     81  76  86 E2        30.03R
CLINTON        CLEAR     81  79  94 CALM      30.03S FOG
SEDALIA        PTCLDY    83  78  85 SE3       30.05R HAZE    HX  93
WARSAW         NOT AVBL
CHILLICOTHE      N/A     83  78  85 CALM      30.03R HX  93
KIRKSVILLE     PTCLDY    80  77  90 NE5       30.03F

$$

MOZ041-047>049-056>058-063>065-088>090-097-230400-
...EASTERN AND SOUTHERN MISSOURI...

CITY           SKY/WX    TMP DP  RH WIND       PRES   REMARKS
ST. LOUIS INTL MOCLDY    86  71  60 SW8       30.02S HX  91
SPIRIT OF STL  MOCLDY    83  73  72 S6        30.01S
COLUMBIA       CLEAR     83  78  85 NE5       30.05R HX  93
JEFFERSON CITY PTCLDY    87  78  74 CALM      30.02R HX 100
HANNIBAL       PTCLDY    84  79  84 CALM      30.01F HAZE    HX  96
ROLLA          PTCLDY    80  73  79 SW7       30.05R
LEBANON        PTCLDY    82  75  78 CALM      30.08R
OSAGE BEACH    MOCLDY    81  75  83 CALM      30.04S
SPRINGFIELD    CLEAR     81  76  84 S5        30.07R
BRANSON        MOCLDY    81  73  78 SE3       30.09S
NEVADA         CLEAR     82  77  83 SW3       30.05R HX  91
JOPLIN         CLEAR     84  75  74 S7        30.06R HX  92
WEST PLAINS    CLEAR     77  71  82 S3        30.10R
MALDEN         PTCLDY    77  70  78 CALM      30.06S

$$

IAZ060-094-KSZ022-034>040-054-083-096-NEZ052-066-093-230400-
...KANSAS...SOUTHEAST NEBRASKA AND IOWA...

CITY           SKY/WX    TMP DP  RH WIND       PRES   REMARKS
TOPEKA         CLEAR     88  79  74 NE8       30.04R HX 103
MANHATTAN      CLEAR     88  76  67 NE10      30.04R HX  99
EMPORIA        CLEAR     85  70  60 SW10      30.04R
CHANUTE        CLEAR     82  75  79 SW6       30.05R
WICHITA        CLEAR     85  72  65 S9        30.07R HX  91
OMAHA          MOCLDY    76  68  76 N7        30.12R
LINCOLN        CLEAR     77  68  73 NE7       30.13R
FALLS CITY     PTCLDY    80  74  81 N6        30.07R
LAMONI         CLEAR     78  72  81 N9        30.09R
DES MOINES     PTCLDY    80  66  62 N14       30.08R

$$



USA.gov is the U.S. government's official web portal to all federal, state and local government web resources and services.